This demonstration page uses our WeatherBlox Daily Observations layout. Learn more.

Left ArrowRight Arrow

39.01783, -85.05884

Hourly Observations for March 5, 2020

Temp ( °F °C ) Dew Point ( °F °C ) Humidity (%) Winds ( mph kmh ) Pressure ( in mb ) Visibility ( mi km ) Precip ( " mm )
12:52 am 00:52 Mostly Clear 39 3.9 26 -3.3 60 60 NNE 3 6 30.13 1020 10 16 0.00 0.00
1:52 am 01:52 Clear 37 2.8 26 -3.3 65 65 ENE 7 11 30.10 1019 10 16 0.00 0.00
2:52 am 02:52 Mostly Clear 36 2.2 25 -3.9 64 64 E 7 11 30.11 1020 10 16 0.00 0.00
3:52 am 03:52 Mostly Clear 34 1.1 25 -3.9 70 70 E 7 11 30.10 1019 10 16 0.00 0.00
4:52 am 04:52 Mostly Cloudy 34 1.1 25 -3.9 70 70 E 7 11 30.13 1020 10 16 0.00 0.00
5:52 am 05:52 Mostly Cloudy 37 2.8 25 -3.9 62 62 ENE 6 9 30.12 1020 10 16 0.00 0.00
6:52 am 06:52 Mostly Cloudy 34 1.1 25 -3.9 70 70 E 6 9 30.12 1020 10 16 0.00 0.00
7:52 am 07:52 Mostly Cloudy 36 2.2 25 -3.9 64 64 ESE 8 13 30.13 1020 10 16 0.00 0.00
8:52 am 08:52 Mostly Cloudy 39 3.9 27 -2.8 62 62 SSE 10 17 30.12 1020 10 16 0.00 0.00
9:52 am 09:52 Mostly Cloudy 44 6.7 27 -2.8 51 51 SSE 15 24 30.10 1019 10 16 0.00 0.00
10:52 am 10:52 Mostly Cloudy 46 7.8 26 -3.3 46 46 S 10 17 30.09 1019 10 16 0.00 0.00
11:52 am 11:52 Mostly Cloudy 51 10.6 25 -3.9 36 36 S 8 13 30.09 1019 10 16 0.00 0.00
12:52 pm 12:52 Mostly Cloudy 53 11.7 26 -3.3 35 35 S 8 13 30.05 1018 10 16 0.00 0.00
1:52 pm 13:52 Mostly Cloudy 56 13.3 24 -4.4 29 29 S 10 17 29.99 1016 10 16 0.00 0.00
2:52 pm 14:52 Mostly Cloudy 58 14.4 20 -6.7 23 23 SSW 10 17 29.95 1014 10 16 0.00 0.00
3:52 pm 15:52 Mostly Cloudy 58 14.4 16 -8.9 19 19 SW 12 19 29.94 1014 10 16 0.00 0.00
4:52 pm 16:52 Partly Cloudy 58 14.4 19 -7.2 22 22 SW 12 19 29.92 1013 10 16 0.00 0.00
5:52 pm 17:52 Partly Cloudy 57 13.9 20 -6.7 24 24 SW 12 19 29.91 1013 10 16 0.00 0.00
6:52 pm 18:52 Mostly Clear 53 11.7 22 -5.6 30 30 SW 5 7 29.93 1014 10 16 0.00 0.00
7:52 pm 19:52 Mostly Clear 51 10.6 20 -6.7 29 29 WSW 5 7 29.93 1014 10 16 0.00 0.00
8:52 pm 20:52 Cloudy 49 9.4 26 -3.3 41 41 W 9 15 29.93 1014 10 16 0.00 0.00
9:52 pm 21:52 Cloudy 51 10.6 29 -1.7 43 43 WNW 23 37 29.95 1014 10 16 0.00 0.00
10:52 pm 22:52 Mostly Cloudy 49 9.4 29 -1.7 46 46 WNW 14 22 29.94 1014 10 16 0.00 0.00
11:52 pm 23:52 Partly Cloudy 47 8.3 27 -2.8 46 46 WNW 14 22 29.95 1014 10 16 0.00 0.00

Powered by AerisWeather